Regional Weather Roundup
Issued by NWS Green Bay, WI

Home | Current Version | Previous Version | Text Only | Print | Product List | Glossary On
Versions: 1 2 3 4 5 6 7 8 9 10 11 12 13 14 15 16 17 18 19 20 21 22 23 24 25 26 27 28 29 30 31 32 33 34 35 36 37 38 39 40 41 42 43 44 45 46 47 48 49 50
000
ASUS43 KGRB 262001
RWRGRB

NORTH-CENTRAL AND NORTHEAST WISCONSIN REGIONAL WEATHER ROUNDUP
NATIONAL WEATHER SERVICE GREEN BAY WI
300 PM CDT MON JUN 26 2017

WIZ005-009-010>012-018-019-262100-
NORTH CENTRAL WISCONSIN

CITY           SKY/WX    TMP DP  RH WIND       PRES   REMARKS
IRONWOOD       SUNNY     63  41  44 W6G16     30.07F
MANITOWISH WTR NOT AVBL
ARBOR VITAE    NOT AVBL
EAGLE RIVER    NOT AVBL
LAND O LAKES   PTSUNNY   60  45  58 N9        30.08F
RHINELANDER    PTSUNNY   59  44  57 N8        30.08F
PHILLIPS       NOT AVBL
ANTIGO         NOT AVBL
TOMAHAWK       NOT AVBL
MERRILL        PTSUNNY   60  45  56 NE16G24   30.08F
$$

WIZ013-073-262100-
NORTHEAST WISCONSIN

CITY           SKY/WX    TMP DP  RH WIND       PRES   REMARKS
IRON MOUNTAIN  CLOUDY    59  49  69 NW12      30.02R
MARINETTE      LGT RAIN  55  52  89 N9        30.01R
$$

WIZ017-030-035>037-045-262100-
CENTRAL WISCONSIN

CITY           SKY/WX    TMP DP  RH WIND       PRES   REMARKS
MEDFORD        NOT AVBL
WAUSAU         CLOUDY    59  43  55 N14G22    30.06S
MOSINEE        NOT AVBL
MARSHFIELD     CLOUDY    60  43  53 N10       30.09F
WISC RAPIDS    CLOUDY    63  45  51 N16G23    30.10S
STEVENS POINT  NOT AVBL
WAUPACA        MOSUNNY   64  46  52 NW14G20   30.06S
SHAWANO        NOT AVBL
CLINTONVILLE   CLOUDY    61  46  59 NW15G23   30.04R
WAUTOMA        CLOUDY    59  45  59 NW12G28   30.08S
$$

WIZ038-039-048-051-262100-
FOX VALLEY

CITY           SKY/WX    TMP DP  RH WIND       PRES   REMARKS
NWS GREEN BAY  LGT RAIN  58  53  84 NW9       30.02F
APPLETON       PTSUNNY   57  45  62 W16G22    30.03S
OSHKOSH        PTSUNNY   61  45  55 W17G24    30.04S
FOND DU LAC    CLOUDY    61  45  55 NW17      30.05S
$$

WIZ022-050-052-262100-
EAST CENTRAL WISCONSIN

CITY           SKY/WX    TMP DP  RH WIND       PRES   REMARKS
EPHRAIM        NOT AVBL
WASHINGTON ISL NOT AVBL
STURGEON BAY     N/A     57  51  80 NW10        N/A
MANITOWOC      NOT AVBL
SHEBOYGAN      PTSUNNY   60  49  66 W12G22    30.04S
$$

LMZ563-521-522-541>543-262100-
LAKESHORE

STATION/POSITION TIME  TEMP    WIND        PRES    VSBY  WAVE
                       AIR SEA DIR/SP/G                  HT/PER
                 (UTC) (F)     (DEG/KT/KT) (MB)    (MI)  (FT/S)
SHEBOYGAN LKSHOR 1900   54     330/ 11/ 13 1017.1R
KEWAUNEE LKSHORE 1930   60     290/  9/ 14 1015.5F
NORTHPORT PIER   1940   58     350/ 15/ 17 1015.2S
N MID LAKE BUOY  1850   56 56  260/  6/  8 1015.3F         1/ 3
S GREEN BAY BUOY 1930   57     330/ 12/ 14 1015.9R
CHAMBERS ISLAND  1940   55     340/  9/ 17 1015.6R
MENOMINEE LKSHOR 1930          320/  3/  4 1014.9S
$$




USA.gov is the U.S. government's official web portal to all federal, state and local government web resources and services.